Printer-friendly version

IAU Minor Planet Center

Minor Planet Center

MPEC 2007-T33 : 2007 TC14

The following Minor Planet Electronic Circular may be linked-to from your own Web pages, but must not otherwise be redistributed electronically.


Read MPEC 2007-T32 Read MPEC 2007-T34


M.P.E.C. 2007-T33                                Issued 2007 Oct.  9, 03:28 UT

     The Minor Planet Electronic Circulars contain information on unusual
         minor planets and routine data on comets.  They are published
   on behalf of Commission 20 of the International Astronomical Union by the
          Minor Planet Center, Smithsonian Astrophysical Observatory,
                          Cambridge, MA 02138, U.S.A.

             Prepared using the Tamkin Foundation Computer Network

                              MPC@CFA.HARVARD.EDU
          URL http://www.cfa.harvard.edu/iau/mpc.html  ISSN 1523-6714

                                   2007 TC14

Observations:
     K07T14C* C2007 10 08.39044 01 26 59.74 +26 44 36.7          19.1 V ET033703
     K07T14C  C2007 10 08.39853 01 26 58.05 +26 45 01.8          19.6 V ET033703
     K07T14C  C2007 10 08.40660 01 26 56.36 +26 45 26.9          19.3 V ET033703
     K07T14C  C2007 10 08.41470 01 26 54.67 +26 45 53.3          19.1 V ET033703
     K07T14C  C2007 10 08.44203 01 26 49.02 +26 47 17.8          19.1 V ET033703
     K07T14C  C2007 10 08.45031 01 26 47.32 +26 47 43.4          18.9 V ET033703
     K07T14C  C2007 10 08.45855 01 26 45.60 +26 48 08.7          18.8 V ET033703
     K07T14C  C2007 10 08.46675 01 26 43.94 +26 48 34.5          18.6 V ET033703
     K07T14C  C2007 10 08.83194 01 25 36.50 +27 08 33.4                 ET033246
     K07T14C  C2007 10 08.83263 01 25 36.34 +27 08 35.8                 ET033246
     K07T14C  C2007 10 08.83321 01 25 36.23 +27 08 38.0                 ET033246
     K07T14C  C2007 10 08.83446 01 25 35.90 +27 08 42.4                 ET033246
     K07T14C  C2007 10 08.83515 01 25 35.84 +27 08 44.7                 ET033246
     K07T14C  C2007 10 08.83584 01 25 35.59 +27 08 47.6                 ET033246
     K07T14C  C2007 10 08.83974 01 25 35.07 +27 08 55.0                 ET033J95
     K07T14C  C2007 10 08.84715 01 25 33.48 +27 09 20.7                 ET033J95
     K07T14C  C2007 10 08.85417 01 25 31.93 +27 09 46.2          19.0 R ET033J95
     K07T14C  C2007 10 08.95485 01 25 08.75 +27 15 50.0          19.4 V ET033595
     K07T14C  C2007 10 08.96157 01 25 07.13 +27 16 13.7          19.5 V ET033595

Observer details:
246 Klet Observatory-KLENOT.  Observer M. Tichy.  1.06-m KLENOT Telescope
    + CCD.
595 Farra d'Isonzo.  Observers L. Bittesini, G. Lombardi, E. Pettarin.
    Measurers G. Lombardi, E. Pettarin.  0.40-m f/4.5 reflector + CCD.
703 Catalina Sky Survey.  Observer R. A. Kowalski.  Measurers E. C. Beshore,
    A. Boattini, G. J. Garradd, A. R. Gibbs, A. D. Grauer, R. E. Hill,
    R. A. Kowalski, S. M. Larson, R. H. McNaught.  0.68-m Schmidt + CCD.
J95 Great Shefford.  Observer P. Birtwhistle.  0.40-m f/6.0 Schmidt-Cassegrain
    + CCD.

Orbital elements:
2007 TC14                                           PHA, Earth MOID = 0.0280 AU
Epoch 2007 Oct. 27.0 TT = JDT 2454400.5                 MPC
M 348.49006              (2000.0)            P               Q
n   0.32664272     Peri.  269.85265     -0.68391279     -0.72729984
a   2.0881133      Node   223.48633     +0.69816353     -0.62960075
e   0.8075244      Incl.    4.78703     +0.21173328     -0.27319926
P   3.02           H   22.0           G   0.15           U   9
Residuals in seconds of arc
071008 703  0.1+  0.4-    071008 703  0.2+  0.4+    071008 J95  0.0   0.2+
071008 703  0.0   0.4-    071008 246  0.4+  0.0     071008 J95  0.1+  0.3-
071008 703  0.1-  0.4-    071008 246  0.3+  0.0     071008 J95  0.3-  0.3+
071008 703  0.2-  0.8+    071008 246  0.5+  0.1+    071008 595  0.3+  0.0
071008 703  0.0   0.4+    071008 246  0.2-  0.1+    071008 595  0.4-  0.0
071008 703  0.2+  0.3+    071008 246  1.0+  0.0
071008 703  0.1-  0.0     071008 246  0.3-  0.5+

Ephemeris:
2007 TC14                a,e,i = 2.09, 0.81, 5                   q = 0.4019
Date    TT    R. A. (2000) Decl.     Delta      r     Elong.  Phase     V
2007 10 07    01 30.78   +25 39.3    0.175    1.163   157.2    19.4    19.5
2007 10 08    01 28.19   +26 24.8    0.160    1.149   157.5    19.4    19.3
2007 10 09    01 24.98   +27 18.8    0.144    1.134   157.6    19.6    19.1
2007 10 10    01 20.92   +28 24.1    0.129    1.119   157.4    20.0    18.8
2007 10 11    01 15.65   +29 45.0    0.114    1.105   156.8    20.8    18.5
2007 10 12    01 08.58   +31 27.7    0.0996   1.090   155.7    22.2    18.2
2007 10 13    00 58.68   +33 42.2    0.0851   1.075   153.7    24.3    17.9
2007 10 14    00 43.89   +36 44.4    0.0710   1.060   150.3    27.8    17.6
2007 10 15    00 19.76   +40 58.9    0.0575   1.045   144.8    33.4    17.3
2007 10 16    23 35.13   +46 53.3    0.0451   1.030   135.5    42.7    17.0
2007 10 17    22 00.28   +53 28.3    0.0350   1.015   119.5    58.7    16.9
2007 10 18    19 10.05   +51 55.6    0.0297   0.999    94.4    83.9    17.3
2007 10 19    16 55.78   +36 05.0    0.0316   0.984    66.1   112.2    18.8

Sonia Keys                   (C) Copyright 2007 MPC           M.P.E.C. 2007-T33

Read MPEC 2007-T32 Read MPEC 2007-T34


Our Web policy. Index to the CBAT/MPC/ICQ pages.


Valid HTML 4.01!